Overview Statistics Trail Chart Weather Telemetry Raw packets
 

This is the latest recevied weather packets stored in our database for station/object KE8WMS. If no packets are shown the sender has not sent any weather packets the latest 10 day(s).

<< 84 85 86 87 88 89 90 >>
Time Temp. Humidity Pressure Rain* Wind** Luminosity Snow
1777214379 8.89° C 95% 1017.9 hPa 0 mm - 204 W/m² -
1777214078 8.89° C 96% 1017.8 hPa 0 mm - 209 W/m² -
1777213773 8.89° C 95% 1017.7 hPa 0 mm - 189 W/m² -
1777213469 8.89° C 96% 1017.6 hPa 0 mm - 184 W/m² -
1777213167 8.89° C 96% 1017.6 hPa 0 mm - 148 W/m² -
1777212863 8.89° C 96% 1017.8 hPa 0 mm - 125 W/m² -
1777212561 8.33° C 96% 1017.9 hPa 0 mm - 121 W/m² -
1777212259 8.33° C 96% 1017.7 hPa 0 mm - 128 W/m² -
1777211955 8.33° C 97% 1017.5 hPa 0 mm - 111 W/m² -
1777211655 8.33° C 97% 1017.5 hPa 0 mm - 105 W/m² -
1777211350 8.33° C 97% 1017.2 hPa 0 mm - 115 W/m² -
1777211047 8.33° C 97% 1017.3 hPa 0 mm - 124 W/m² -
1777210742 8.33° C 97% 1017.3 hPa 0 mm - 87 W/m² -
1777210436 8.33° C 97% 1017.3 hPa 0 mm - 83 W/m² -
1777210133 8.33° C 97% 1017.3 hPa 0 mm - 93 W/m² -
1777209830 8.33° C 97% 1017.6 hPa 0 mm - 90 W/m² -
1777209525 8.33° C 97% 1017.5 hPa 0 mm - 74 W/m² -
1777209221 8.33° C 98% 1017.6 hPa 0 mm - 86 W/m² -
1777208919 7.78° C 98% 1017.6 hPa 0 mm - 77 W/m² -
1777208614 7.78° C 98% 1017.7 hPa 0 mm - 80 W/m² -
1777208311 7.78° C 98% 1017.6 hPa 0 mm - 62 W/m² -
1777208007 7.78° C 98% 1017.5 hPa 0 mm - 51 W/m² -
1777207703 7.78° C 98% 1017.6 hPa 0 mm - 48 W/m² -
1777207398 7.78° C 98% 1017.3 hPa 0 mm - 42 W/m² -
1777207097 7.78° C 98% 1017.2 hPa 0 mm - 39 W/m² -

* Rain latest hour (hover to see other rain measurements)
** Current wind speed in m/s (hover to see current wind gust speed)